South Haven, MI

3:41 PM EDT on September 25, 2017 (GMT -0400)
South Haven

Weather History for KLWA - November, 2011

Change the Weather History Date:

Sunday, November 20, 2011

  Actual Average (KBEH) Record (KBEH)
Temperature  
Mean Temperature 44 °F -  
Max Temperature 55 °F 48 °F 68 °F (1991)
Min Temperature 33 °F 31 °F 18 °F (1951)
Degree Days  
Heating Degree Days 21    
Moisture  
Dew Point 36 °F    
Average Humidity 76    
Maximum Humidity 88    
Minimum Humidity 66    
Precipitation  
Precipitation 0.00 in - - ()
Sea Level Pressure  
Sea Level Pressure 30.15 in    
Wind  
Wind Speed 13 mph (North)    
Max Wind Speed 22 mph    
Max Gust Speed 31 mph    
Visibility 10 miles    
Events      
Averages and records for this station are not official NWS values.
T = Trace of Precipitation, MM = Missing Value Source: NWS Daily Summary

Daily Weather History Graph

Daily Weather History Graph

Search for Another Location

Airport or City:

Trip Planner

Search our weather history database for the weather conditions in past years. The results will help you decide how hot, cold, wet, or windy it might be!

Date:

Astronomy

Nov. 20, 2011 Rise Set
Actual Time 7:41 AM EST 5:19 PM EST
Civil Twilight 7:11 AM EST 5:49 PM EST
Nautical Twilight 6:36 AM EST 6:24 PM EST
Astronomical Twilight 6:03 AM EST 6:57 PM EST
Moon 2:03 AM EST (11/20) 2:13 PM EST (11/20)
Length of Visible Light 10h 38m
Length of Day
9h 37m
Waning Crescent, 27% of the Moon is Illuminated
Nov 20
Waning Crescent
Nov 25
New
Dec 2
First Quarter
Dec 10
Full
Dec 17
Last Quarter

Hourly Weather History & Observations

Time (EST) Temp. Windchill Dew Point Humidity Pressure Visibility Wind Dir Wind Speed Gust Speed Precip Events Conditions
12:14 AM 55.4 °F - 50.0 °F 82% 29.80 in 10.0 mi SW 21.9 mph 31.1 mph N/A   Overcast
12:35 AM 55.4 °F - 50.0 °F 82% 29.81 in 10.0 mi SW 17.3 mph 29.9 mph N/A   Overcast
1:14 AM 55.4 °F - 50.0 °F 82% 29.82 in 10.0 mi SW 16.1 mph 24.2 mph N/A   Overcast
1:35 AM 55.4 °F - 50.0 °F 82% 29.84 in 10.0 mi SW 15.0 mph 26.5 mph N/A   Overcast
1:55 AM 53.6 °F - 50.0 °F 88% 29.85 in 10.0 mi SW 13.8 mph 28.8 mph N/A   Overcast
2:14 AM 53.6 °F - 50.0 °F 88% 29.86 in 10.0 mi WSW 17.3 mph 26.5 mph N/A   Overcast
2:35 AM 53.6 °F - 50.0 °F 88% 29.88 in 10.0 mi WSW 13.8 mph 24.2 mph N/A   Overcast
2:55 AM 53.6 °F - 50.0 °F 88% 29.89 in 10.0 mi WSW 17.3 mph 24.2 mph N/A   Overcast
3:15 AM 53.6 °F - 48.2 °F 82% 29.91 in 10.0 mi West 16.1 mph 26.5 mph N/A   Overcast
3:35 AM 51.8 °F - 44.6 °F 76% 29.94 in 10.0 mi NW 15.0 mph 27.6 mph N/A   Overcast
3:54 AM 46.4 °F 40.7 °F 42.8 °F 87% 29.96 in 7.0 mi NW 12.7 mph 24.2 mph N/A   Overcast
4:15 AM 46.4 °F 40.7 °F 42.8 °F 87% 29.98 in 7.0 mi NW 12.7 mph 23.0 mph N/A   Overcast
4:34 AM 44.6 °F 37.2 °F 41.0 °F 87% 29.99 in 10.0 mi NW 17.3 mph 24.2 mph N/A   Overcast
4:55 AM 44.6 °F 38.4 °F 41.0 °F 87% 30.02 in 10.0 mi NW 12.7 mph 21.9 mph N/A   Overcast
5:15 AM 44.6 °F 37.8 °F 39.2 °F 81% 30.03 in 10.0 mi NW 15.0 mph 25.3 mph N/A   Overcast
5:35 AM 42.8 °F 35.4 °F 37.4 °F 81% 30.05 in 10.0 mi NW 15.0 mph 23.0 mph N/A   Overcast
5:55 AM 42.8 °F 35.8 °F 37.4 °F 81% 30.06 in 10.0 mi NW 13.8 mph - N/A   Overcast
6:55 AM 42.8 °F 37.5 °F 37.4 °F 81% 30.09 in 10.0 mi NNW 9.2 mph 17.3 mph N/A   Overcast
7:14 AM 42.8 °F 36.2 °F 35.6 °F 76% 30.10 in 10.0 mi NNW 12.7 mph 17.3 mph N/A   Overcast
7:55 AM 42.8 °F 36.6 °F 35.6 °F 76% 30.12 in 10.0 mi North 11.5 mph - N/A   Overcast
8:15 AM 41.0 °F 35.2 °F 35.6 °F 81% 30.13 in 10.0 mi North 9.2 mph 16.1 mph N/A   Overcast
8:35 AM 41.0 °F 36.4 °F 35.6 °F 81% 30.14 in 10.0 mi North 6.9 mph - N/A   Mostly Cloudy
9:15 AM 42.8 °F 37.0 °F 33.8 °F 70% 30.16 in 10.0 mi NNE 10.4 mph - N/A   Clear
9:35 AM 42.8 °F 38.0 °F 33.8 °F 70% 30.17 in 10.0 mi North 8.1 mph - N/A   Clear
9:54 AM 42.8 °F 39.3 °F 33.8 °F 70% 30.18 in 10.0 mi North 5.8 mph - N/A   Scattered Clouds
10:15 AM 42.8 °F 38.0 °F 33.8 °F 70% 30.18 in 10.0 mi North 8.1 mph - N/A   Scattered Clouds
10:34 AM 42.8 °F 37.5 °F 33.8 °F 70% 30.20 in 10.0 mi North 9.2 mph - N/A   Scattered Clouds
10:55 AM 42.8 °F 37.0 °F 32.0 °F 66% 30.21 in 10.0 mi NNW 10.4 mph 16.1 mph N/A   Scattered Clouds
11:14 AM 42.8 °F 37.5 °F 32.0 °F 66% 30.22 in 10.0 mi North 9.2 mph 18.4 mph N/A   Mostly Cloudy
11:35 AM 42.8 °F 36.6 °F 33.8 °F 70% 30.22 in 10.0 mi NNW 11.5 mph - N/A   Scattered Clouds
11:55 AM 42.8 °F 37.5 °F 33.8 °F 70% 30.22 in 10.0 mi North 9.2 mph - N/A   Scattered Clouds
12:15 PM 42.8 °F 37.0 °F 32.0 °F 66% 30.23 in 10.0 mi NNW 10.4 mph - N/A   Scattered Clouds
12:35 PM 42.8 °F 37.5 °F 32.0 °F 66% 30.23 in 10.0 mi NNW 9.2 mph 17.3 mph N/A   Mostly Cloudy
1:15 PM 42.8 °F 36.6 °F 32.0 °F 66% 30.23 in 10.0 mi NNE 11.5 mph - N/A   Overcast
1:55 PM 42.8 °F 37.0 °F 32.0 °F 66% 30.23 in 10.0 mi North 10.4 mph - N/A   Overcast
2:15 PM 42.8 °F 37.0 °F 32.0 °F 66% 30.22 in 10.0 mi North 10.4 mph - N/A   Overcast
2:34 PM 42.8 °F 36.2 °F 32.0 °F 66% 30.23 in 10.0 mi North 12.7 mph 17.3 mph N/A   Overcast
2:55 PM 41.0 °F 34.7 °F 32.0 °F 70% 30.25 in 10.0 mi North 10.4 mph - N/A   Overcast
3:14 PM 41.0 °F 34.7 °F 32.0 °F 70% 30.24 in 10.0 mi North 10.4 mph - N/A   Overcast
3:35 PM 41.0 °F 34.7 °F 32.0 °F 70% 30.24 in 10.0 mi North 10.4 mph 17.3 mph N/A   Overcast
3:55 PM 41.0 °F 35.8 °F 32.0 °F 70% 30.25 in 10.0 mi North 8.1 mph - N/A   Overcast
4:14 PM 41.0 °F 36.4 °F 32.0 °F 70% 30.25 in 10.0 mi North 6.9 mph - N/A   Overcast
4:35 PM 41.0 °F 35.8 °F 32.0 °F 70% 30.27 in 10.0 mi North 8.1 mph - N/A   Overcast
4:54 PM 41.0 °F 35.2 °F 32.0 °F 70% 30.27 in 10.0 mi North 9.2 mph - N/A   Overcast
5:15 PM 39.2 °F 34.2 °F 32.0 °F 75% 30.28 in 10.0 mi North 6.9 mph - N/A   Overcast
5:35 PM 39.2 °F 34.2 °F 32.0 °F 75% 30.28 in 10.0 mi North 6.9 mph - N/A   Overcast
6:15 PM 39.2 °F 34.2 °F 32.0 °F 75% 30.29 in 10.0 mi North 6.9 mph - N/A   Mostly Cloudy
6:34 PM 39.2 °F 35.0 °F 32.0 °F 75% 30.30 in 10.0 mi North 5.8 mph - N/A   Scattered Clouds
6:55 PM 37.4 °F 32.8 °F 30.2 °F 75% 30.31 in 10.0 mi North 5.8 mph - N/A   Scattered Clouds
7:15 PM 37.4 °F 31.4 °F 30.2 °F 75% 30.31 in 10.0 mi NNE 8.1 mph - N/A   Clear
7:34 PM 37.4 °F 31.4 °F 30.2 °F 75% 30.31 in 10.0 mi NNE 8.1 mph - N/A   Clear
7:55 PM 37.4 °F 30.8 °F 30.2 °F 75% 30.31 in 10.0 mi NE 9.2 mph - N/A   Clear
8:34 PM 35.6 °F 28.6 °F 30.2 °F 81% 30.30 in 10.0 mi NE 9.2 mph - N/A   Clear
8:55 PM 35.6 °F 29.9 °F 30.2 °F 81% 30.30 in 10.0 mi NE 6.9 mph - N/A   Clear
9:14 PM 35.6 °F 29.2 °F 30.2 °F 81% 30.30 in 10.0 mi NNE 8.1 mph - N/A   Clear
9:35 PM 33.8 °F 28.6 °F 30.2 °F 87% 30.31 in 10.0 mi ENE 5.8 mph - N/A   Clear
9:55 PM 33.8 °F 27.7 °F 30.2 °F 87% 30.32 in 10.0 mi NE 6.9 mph - N/A   Clear
10:14 PM 33.8 °F 27.7 °F 30.2 °F 87% 30.32 in 10.0 mi NE 6.9 mph - N/A   Clear
10:35 PM 33.8 °F 27.7 °F 30.2 °F 87% 30.32 in 10.0 mi NE 6.9 mph - N/A   Clear
10:55 PM 32.0 °F 26.4 °F 28.4 °F 87% 30.32 in 10.0 mi NE 5.8 mph - N/A   Clear
11:14 PM 32.0 °F 26.4 °F 28.4 °F 87% 30.32 in 10.0 mi NE 5.8 mph - N/A   Mostly Cloudy
11:35 PM 32.0 °F 26.4 °F 28.4 °F 87% 30.32 in 10.0 mi NE 5.8 mph - N/A   Scattered Clouds
11:54 PM 32.0 °F 25.6 °F 28.4 °F 87% 30.30 in 10.0 mi NE 6.9 mph - N/A   Clear